| time (UTC) | temp C | wind direction | speed KPH | gust KPH | rain 1hr cm | rain 24hr cm | rain mn cm | humidity % | barometer mb |
| 20260905214804 | 26 | 74 | 1.6 | 3.2 | 0.00 | 0.00 | 0.00 | 44 | 1015.9 |
| 20260905214301 | 26 | 74 | 1.6 | 3.2 | 0.00 | 0.00 | 0.00 | 44 | 1016.0 |
| 20260905213801 | 26 | 73 | 1.6 | 4.8 | 0.00 | 0.00 | 0.00 | 44 | 1016.0 |
| 20260905213301 | 26 | 70 | 1.6 | 6.4 | 0.00 | 0.00 | 0.00 | 44 | 1016.1 |
| 20260905212758 | 27 | 101 | 1.6 | 6.4 | 0.00 | 0.00 | 0.00 | 42 | 1016.1 |
| 20260905212259 | 27 | 113 | 4.8 | 8.0 | 0.00 | 0.00 | 0.00 | 41 | 1016.2 |
| 20260905212235 | 27 | 101 | 6.4 | 8.0 | 0.00 | 0.00 | 0.00 | 40 | 1016.1 |
| 20260905211259 | 27 | 99 | 4.8 | 8.0 | 0.00 | 0.00 | 0.00 | 41 | 1016.1 |
| 20260905210759 | 27 | 103 | 3.2 | 6.4 | 0.00 | 0.00 | 0.00 | 42 | 1016.1 |
| 20260905210257 | 27 | 98 | 3.2 | 4.8 | 0.00 | 0.00 | 0.00 | 41 | 1016.2 |
| 20260905205756 | 27 | 113 | 1.6 | 3.2 | 0.00 | 0.00 | 0.00 | 43 | 1016.2 |
| 20260905205513 | 27 | 113 | 1.6 | 3.2 | 0.00 | 0.00 | 0.00 | 43 | 1016.3 |
| 20260905204755 | 27 | 113 | 1.6 | 1.6 | 0.00 | 0.00 | 0.00 | 44 | 1016.2 |
| 20260905204254 | 27 | 113 | 0.0 | 1.6 | 0.00 | 0.00 | 0.00 | 44 | 1016.3 |
| 20260905203755 | 27 | 113 | 0.0 | 3.2 | 0.00 | 0.00 | 0.00 | 43 | 1016.3 |
| 20260905203253 | 27 | 113 | 1.6 | 4.8 | 0.00 | 0.00 | 0.00 | 41 | 1016.3 |
| 20260905202753 | 27 | 113 | 3.2 | 8.0 | 0.00 | 0.00 | 0.00 | 41 | 1016.3 |
| 20260905202253 | 27 | 115 | 4.8 | 8.0 | 0.00 | 0.00 | 0.00 | 40 | 1016.2 |
| 20260905202018 | 27 | 96 | 4.8 | 8.0 | 0.00 | 0.00 | 0.00 | 40 | 1016.2 |
| 20260905201504 | 27 | 113 | 4.8 | 9.7 | 0.00 | 0.00 | 0.00 | 41 | 1016.2 |
| 20260905200740 | 27 | 111 | 6.4 | 9.7 | 0.00 | 0.00 | 0.00 | 42 | 1016.2 |
| 20260905200453 | 27 | 113 | 6.4 | 11.3 | 0.00 | 0.00 | 0.00 | 42 | 1016.2 |
| 20260905200211 | 27 | 115 | 8.0 | 12.9 | 0.00 | 0.00 | 0.00 | 42 | 1016.2 |
| 20260905195223 | 27 | 94 | 6.4 | 12.9 | 0.00 | 0.00 | 0.00 | 43 | 1016.2 |
| 20260905194717 | 27 | 114 | 4.8 | 12.9 | 0.00 | 0.00 | 0.00 | 43 | 1016.2 |
| 20260905194211 | 27 | 113 | 3.2 | 8.0 | 0.00 | 0.00 | 0.00 | 44 | 1016.2 |
| 20260905193704 | 27 | 109 | 4.8 | 9.7 | 0.00 | 0.00 | 0.00 | 44 | 1016.2 |
| 20260905193159 | 27 | 91 | 4.8 | 11.3 | 0.00 | 0.00 | 0.00 | 44 | 1016.2 |
| 20260905192659 | 27 | 107 | 6.4 | 11.3 | 0.00 | 0.00 | 0.00 | 44 | 1016.3 |
| 20260905192159 | 27 | 98 | 6.4 | 11.3 | 0.00 | 0.00 | 0.00 | 44 | 1016.3 |
| 20260905191658 | 27 | 117 | 6.4 | 9.7 | 0.00 | 0.00 | 0.00 | 44 | 1016.3 |
| 20260905191427 | 27 | 113 | 6.4 | 9.7 | 0.00 | 0.00 | 0.00 | 44 | 1016.3 |
| 20260905190659 | 27 | 95 | 4.8 | 8.0 | 0.00 | 0.00 | 0.00 | 44 | 1016.3 |
| 20260905190156 | 27 | 82 | 4.8 | 8.0 | 0.00 | 0.00 | 0.00 | 43 | 1016.3 |
| 20260905185657 | 27 | 91 | 3.2 | 8.0 | 0.00 | 0.00 | 0.00 | 42 | 1016.3 |
| 20260905185157 | 28 | 79 | 3.2 | 8.0 | 0.00 | 0.00 | 0.00 | 42 | 1016.3 |
| 20260905184657 | 28 | 108 | 4.8 | 8.0 | 0.00 | 0.00 | 0.00 | 42 | 1016.3 |
| 20260905184156 | 28 | 96 | 4.8 | 9.7 | 0.00 | 0.00 | 0.00 | 42 | 1016.3 |
| 20260905183657 | 28 | 107 | 4.8 | 9.7 | 0.00 | 0.00 | 0.00 | 42 | 1016.2 |
| 20260905183155 | 28 | 93 | 4.8 | 8.0 | 0.00 | 0.00 | 0.00 | 42 | 1016.1 |
| 20260905182655 | 28 | 103 | 4.8 | 8.0 | 0.00 | 0.00 | 0.00 | 42 | 1016.1 |
| 20260905182155 | 28 | 120 | 3.2 | 8.0 | 0.00 | 0.00 | 0.00 | 42 | 1016.0 |
| 20260905181628 | 28 | 104 | 3.2 | 9.7 | 0.00 | 0.00 | 0.00 | 42 | 1015.9 |
| 20260905181129 | 28 | 180 | 3.2 | 9.7 | 0.00 | 0.00 | 0.00 | 41 | 1015.9 |
| 20260905180628 | 28 | 124 | 3.2 | 9.7 | 0.00 | 0.00 | 0.00 | 40 | 1016.0 |
| 20260905180129 | 28 | 102 | 3.2 | 9.7 | 0.00 | 0.00 | 0.00 | 40 | 1015.9 |
| 20260905175847 | 28 | 59 | 3.2 | 8.0 | 0.00 | 0.00 | 0.00 | 40 | 1015.9 |
| 20260905175129 | 28 | 146 | 3.2 | 8.0 | 0.00 | 0.00 | 0.00 | 41 | 1015.8 |
| 20260905174628 | 28 | 119 | 3.2 | 8.0 | 0.00 | 0.00 | 0.00 | 41 | 1015.7 |
| 20260905174128 | 28 | 85 | 4.8 | 9.7 | 0.00 | 0.00 | 0.00 | 40 | 1015.7 |
| 20260905173628 | 28 | 237 | 4.8 | 9.7 | 0.00 | 0.00 | 0.00 | 40 | 1015.7 |
| 20260905173129 | 28 | 149 | 3.2 | 8.0 | 0.00 | 0.00 | 0.00 | 41 | 1015.6 |
| 20260905172628 | 29 | 150 | 3.2 | 8.0 | 0.00 | 0.00 | 0.00 | 42 | 1015.6 |
| 20260905172129 | 29 | 113 | 3.2 | 6.4 | 0.00 | 0.00 | 0.00 | 43 | 1015.6 |
| 20260905171850 | 29 | 120 | 3.2 | 9.7 | 0.00 | 0.00 | 0.00 | 42 | 1015.6 |
| 20260905171130 | 29 | 108 | 3.2 | 12.9 | 0.00 | 0.00 | 0.00 | 41 | 1015.6 |
| 20260905170629 | 29 | 235 | 4.8 | 12.9 | 0.00 | 0.00 | 0.00 | 40 | 1015.6 |
| 20260905170129 | 30 | 171 | 4.8 | 12.9 | 0.00 | 0.00 | 0.00 | 41 | 1015.5 |
| 20260905165629 | 30 | 154 | 3.2 | 9.7 | 0.00 | 0.00 | 0.00 | 41 | 1015.5 |
| 20260905165128 | 30 | 143 | 3.2 | 12.9 | 0.00 | 0.00 | 0.00 | 41 | 1015.5 |
| 20260905164629 | 30 | 132 | 4.8 | 12.9 | 0.00 | 0.00 | 0.00 | 40 | 1015.4 |
| 20260905164129 | 31 | 131 | 4.8 | 11.3 | 0.00 | 0.00 | 0.00 | 39 | 1015.3 |
| 20260905163625 | 31 | 199 | 3.2 | 11.3 | 0.00 | 0.00 | 0.00 | 40 | 1015.3 |
| 20260905163125 | 31 | 153 | 3.2 | 9.7 | 0.00 | 0.00 | 0.00 | 43 | 1015.4 |
| 20260905162622 | 31 | 143 | 3.2 | 9.7 | 0.00 | 0.00 | 0.00 | 40 | 1015.4 |
| 20260905162123 | 31 | 165 | 4.8 | 14.5 | 0.00 | 0.00 | 0.00 | 40 | 1015.2 |
| 20260905161623 | 31 | 229 | 4.8 | 14.5 | 0.00 | 0.00 | 0.00 | 38 | 1015.3 |
| 20260905161354 | 31 | 165 | 4.8 | 11.3 | 0.00 | 0.00 | 0.00 | 39 | 1015.4 |
| 20260905160621 | 32 | 181 | 3.2 | 11.3 | 0.00 | 0.00 | 0.00 | 38 | 1015.4 |
| 20260905160118 | 32 | 206 | 3.2 | 9.7 | 0.00 | 0.00 | 0.00 | 38 | 1015.3 |
| 20260905155618 | 32 | 237 | 3.2 | 9.7 | 0.00 | 0.00 | 0.00 | 38 | 1015.3 |
| 20260905155118 | 32 | 110 | 3.2 | 9.7 | 0.00 | 0.00 | 0.00 | 40 | 1015.3 |
| 20260905154620 | 31 | 228 | 4.8 | 14.5 | 0.00 | 0.00 | 0.00 | 41 | 1015.4 |
| 20260905154117 | 31 | 243 | 6.4 | 14.5 | 0.00 | 0.00 | 0.00 | 41 | 1015.3 |
| 20260905153616 | 31 | 232 | 6.4 | 12.9 | 0.00 | 0.00 | 0.00 | 42 | 1015.3 |
| 20260905153116 | 31 | 208 | 4.8 | 12.9 | 0.00 | 0.00 | 0.00 | 42 | 1015.3 |
| 20260905152616 | 31 | 243 | 4.8 | 12.9 | 0.00 | 0.00 | 0.00 | 44 | 1015.3 |
| 20260905152341 | 31 | 138 | 6.4 | 14.5 | 0.00 | 0.00 | 0.00 | 43 | 1015.3 |
| 20260905151615 | 31 | 208 | 8.0 | 14.5 | 0.00 | 0.00 | 0.00 | 43 | 1015.3 |
| 20260905151114 | 32 | 231 | 4.8 | 14.5 | 0.00 | 0.00 | 0.00 | 43 | 1015.2 |
| 20260905150607 | 32 | 262 | 4.8 | 14.5 | 0.00 | 0.00 | 0.00 | 44 | 1015.2 |
| 20260905145556 | 32 | 206 | 6.4 | 14.5 | 0.00 | 0.00 | 0.00 | 40 | 1015.2 |
| 20260905145049 | 32 | 223 | 4.8 | 12.9 | 0.00 | 0.00 | 0.00 | 40 | 1015.2 |
| 20260905144543 | 33 | 206 | 3.2 | 12.9 | 0.00 | 0.00 | 0.00 | 35 | 1015.3 |
| 20260905144306 | 33 | 262 | 1.6 | 6.4 | 0.00 | 0.00 | 0.00 | 39 | 1015.2 |
| 20260905143531 | 33 | 259 | 3.2 | 6.4 | 0.00 | 0.00 | 0.00 | 36 | 1015.3 |
| 20260905143027 | 32 | 248 | 3.2 | 9.7 | 0.00 | 0.00 | 0.00 | 34 | 1015.4 |
| 20260905142520 | 32 | 209 | 4.8 | 12.9 | 0.00 | 0.00 | 0.00 | 36 | 1015.4 |
| 20260905142014 | 32 | 237 | 4.8 | 12.9 | 0.00 | 0.00 | 0.00 | 37 | 1015.5 |
| 20260905141732 | 32 | 205 | 4.8 | 12.9 | 0.00 | 0.00 | 0.00 | 41 | 1015.5 |
| 20260905141002 | 31 | 231 | 6.4 | 12.9 | 0.00 | 0.00 | 0.00 | 40 | 1015.5 |
| 20260905140455 | 32 | 236 | 6.4 | 12.9 | 0.00 | 0.00 | 0.00 | 43 | 1015.5 |
| 20260905135950 | 32 | 232 | 6.4 | 12.9 | 0.00 | 0.00 | 0.00 | 36 | 1015.6 |
| 20260905135444 | 32 | 252 | 4.8 | 11.3 | 0.00 | 0.00 | 0.00 | 38 | 1015.6 |
| 20260905135207 | 32 | 209 | 6.4 | 14.5 | 0.00 | 0.00 | 0.00 | 36 | 1015.6 |
| 20260905134431 | 32 | 233 | 4.8 | 12.9 | 0.00 | 0.00 | 0.00 | 36 | 1015.7 |
| 20260905133926 | 32 | 220 | 4.8 | 11.3 | 0.00 | 0.00 | 0.00 | 34 | 1015.7 |
| 20260905133420 | 32 | 271 | 6.4 | 12.9 | 0.00 | 0.00 | 0.00 | 35 | 1015.8 |
| 20260905132914 | 31 | 258 | 8.0 | 12.9 | 0.00 | 0.00 | 0.00 | 36 | 1015.9 |
| 20260905132408 | 31 | 267 | 8.0 | 12.9 | 0.00 | 0.00 | 0.00 | 36 | 1015.9 |
| 20260905131901 | 32 | 292 | 6.4 | 14.5 | 0.00 | 0.00 | 0.00 | 33 | 1016.0 |
| 20260905131623 | 32 | 175 | 6.4 | 14.5 | 0.00 | 0.00 | 0.00 | 33 | 1016.0 |
| 20260905130850 | 32 | 224 | 4.8 | 11.3 | 0.00 | 0.00 | 0.00 | 31 | 1016.1 |
| 20260905130603 | 32 | 253 | 4.8 | 11.3 | 0.00 | 0.00 | 0.00 | 32 | 1016.1 |
| 20260905125838 | 32 | 314 | 4.8 | 11.3 | 0.00 | 0.00 | 0.00 | 34 | 1016.2 |
| 20260905125816 | 32 | 214 | 4.8 | 11.3 | 0.00 | 0.00 | 0.00 | 32 | 1016.2 |
| 20260905124826 | 32 | 234 | 6.4 | 14.5 | 0.00 | 0.00 | 0.00 | 33 | 1016.2 |
| 20260905124320 | 31 | 227 | 6.4 | 14.5 | 0.00 | 0.00 | 0.00 | 32 | 1016.3 |
| 20260905123814 | 31 | 288 | 6.4 | 12.9 | 0.00 | 0.00 | 0.00 | 34 | 1016.4 |
| 20260905123307 | 31 | 255 | 6.4 | 12.9 | 0.00 | 0.00 | 0.00 | 36 | 1016.5 |
| 20260905123246 | 31 | 261 | 6.4 | 12.9 | 0.00 | 0.00 | 0.00 | 36 | 1016.5 |
| 20260905122256 | 31 | 236 | 6.4 | 11.3 | 0.00 | 0.00 | 0.00 | 38 | 1016.5 |
| 20260905121749 | 31 | 236 | 6.4 | 12.9 | 0.00 | 0.00 | 0.00 | 36 | 1016.6 |
| 20260905121244 | 31 | 266 | 6.4 | 12.9 | 0.00 | 0.00 | 0.00 | 37 | 1016.6 |
| 20260905120738 | 31 | 238 | 6.4 | 12.9 | 0.00 | 0.00 | 0.00 | 34 | 1016.6 |
| 20260905120232 | 31 | 215 | 6.4 | 11.3 | 0.00 | 0.00 | 0.00 | 36 | 1016.9 |
| 20260905115725 | 31 | 285 | 4.8 | 11.3 | 0.00 | 0.00 | 0.00 | 38 | 1017.0 |
| 20260905115220 | 31 | 248 | 6.4 | 11.3 | 0.00 | 0.00 | 0.00 | 39 | 1017.0 |
| 20260905114715 | 31 | 268 | 6.4 | 11.3 | 0.00 | 0.00 | 0.00 | 39 | 1017.1 |
| 20260905114214 | 31 | 224 | 6.4 | 11.3 | 0.00 | 0.00 | 0.00 | 39 | 1017.1 |
| 20260905113714 | 31 | 250 | 6.4 | 12.9 | 0.00 | 0.00 | 0.00 | 42 | 1017.2 |
| 20260905113214 | 31 | 240 | 8.0 | 12.9 | 0.00 | 0.00 | 0.00 | 42 | 1017.2 |
| 20260905112712 | 31 | 251 | 6.4 | 11.3 | 0.00 | 0.00 | 0.00 | 39 | 1017.2 |
| 20260905112212 | 31 | 266 | 4.8 | 9.7 | 0.00 | 0.00 | 0.00 | 37 | 1017.2 |
| 20260905111714 | 30 | 257 | 4.8 | 9.7 | 0.00 | 0.00 | 0.00 | 35 | 1017.2 |
| 20260905111214 | 30 | 266 | 6.4 | 9.7 | 0.00 | 0.00 | 0.00 | 41 | 1017.3 |
| 20260905110712 | 30 | 269 | 6.4 | 9.7 | 0.00 | 0.00 | 0.00 | 38 | 1017.3 |
| 20260905110212 | 30 | 250 | 8.0 | 9.7 | 0.00 | 0.00 | 0.00 | 39 | 1017.3 |
| 20260905105712 | 30 | 259 | 6.4 | 9.7 | 0.00 | 0.00 | 0.00 | 38 | 1017.3 |
| 20260905105212 | 30 | 255 | 4.8 | 9.7 | 0.00 | 0.00 | 0.00 | 36 | 1017.4 |
| 20260905104935 | 30 | 283 | 6.4 | 9.7 | 0.00 | 0.00 | 0.00 | 41 | 1017.4 |
| 20260905104210 | 30 | 243 | 4.8 | 9.7 | 0.00 | 0.00 | 0.00 | 42 | 1017.5 |
| 20260905103710 | 30 | 259 | 4.8 | 9.7 | 0.00 | 0.00 | 0.00 | 41 | 1017.6 |
| 20260905103210 | 30 | 283 | 4.8 | 8.0 | 0.00 | 0.00 | 0.00 | 41 | 1017.6 |
| 20260905102707 | 30 | 291 | 4.8 | 8.0 | 0.00 | 0.00 | 0.00 | 44 | 1017.6 |
| 20260905102209 | 30 | 258 | 4.8 | 8.0 | 0.00 | 0.00 | 0.00 | 49 | 1017.7 |
| 20260905101703 | 29 | 243 | 4.8 | 8.0 | 0.00 | 0.00 | 0.00 | 49 | 1017.8 |
| 20260905101202 | 29 | 281 | 4.8 | 8.0 | 0.00 | 0.00 | 0.00 | 46 | 1017.8 |
| 20260905100702 | 29 | 264 | 4.8 | 8.0 | 0.00 | 0.00 | 0.00 | 49 | 1017.9 |
| 20260905100202 | 29 | 292 | 4.8 | 9.7 | 0.00 | 0.00 | 0.00 | 47 | 1018.0 |
| 20260905095659 | 29 | 280 | 4.8 | 9.7 | 0.00 | 0.00 | 0.00 | 50 | 1018.0 |
| 20260905095426 | 29 | 316 | 4.8 | 9.7 | 0.00 | 0.00 | 0.00 | 48 | 1018.1 |
| 20260905094700 | 28 | 284 | 6.4 | 9.7 | 0.00 | 0.00 | 0.00 | 48 | 1018.1 |
| 20260905094646 | 28 | 233 | 6.4 | 11.3 | 0.00 | 0.00 | 0.00 | 47 | 1018.1 |
| 20260905093656 | 28 | 258 | 6.4 | 11.3 | 0.00 | 0.00 | 0.00 | 51 | 1018.1 |
| 20260905093421 | 28 | 299 | 6.4 | 9.7 | 0.00 | 0.00 | 0.00 | 50 | 1018.2 |
| 20260905092655 | 28 | 296 | 6.4 | 11.3 | 0.00 | 0.00 | 0.00 | 51 | 1018.2 |
| 20260905092154 | 28 | 256 | 6.4 | 12.9 | 0.00 | 0.00 | 0.00 | 48 | 1018.3 |
| 20260905091911 | 28 | 267 | 6.4 | 12.9 | 0.00 | 0.00 | 0.00 | 51 | 1018.3 |
| 20260905091152 | 28 | 281 | 6.4 | 12.9 | 0.00 | 0.00 | 0.00 | 49 | 1018.4 |
| 20260905090651 | 28 | 251 | 4.8 | 12.9 | 0.00 | 0.00 | 0.00 | 52 | 1018.5 |
| 20260905090632 | 28 | 243 | 4.8 | 9.7 | 0.00 | 0.00 | 0.00 | 49 | 1018.4 |
| 20260905085651 | 28 | 252 | 4.8 | 11.3 | 0.00 | 0.00 | 0.00 | 50 | 1018.4 |
| 20260905085148 | 28 | 290 | 4.8 | 11.3 | 0.00 | 0.00 | 0.00 | 54 | 1018.4 |
| 20260905084918 | 28 | 341 | 4.8 | 9.7 | 0.00 | 0.00 | 0.00 | 55 | 1018.5 |
| 20260905084147 | 27 | 219 | 4.8 | 9.7 | 0.00 | 0.00 | 0.00 | 56 | 1018.5 |
| 20260905083647 | 27 | 267 | 3.2 | 9.7 | 0.00 | 0.00 | 0.00 | 56 | 1018.5 |
| 20260905083147 | 27 | 294 | 4.8 | 9.7 | 0.00 | 0.00 | 0.00 | 57 | 1018.6 |
| 20260905083132 | 27 | 272 | 4.8 | 9.7 | 0.00 | 0.00 | 0.00 | 59 | 1018.6 |
| 20260905082407 | 27 | 296 | 4.8 | 9.7 | 0.00 | 0.00 | 0.00 | 62 | 1018.6 |
| 20260905081646 | 27 | 302 | 4.8 | 9.7 | 0.00 | 0.00 | 0.00 | 61 | 1018.6 |
| 20260905081146 | 27 | 313 | 3.2 | 8.0 | 0.00 | 0.00 | 0.00 | 63 | 1018.6 |
| 20260905080642 | 27 | 352 | 3.2 | 8.0 | 0.00 | 0.00 | 0.00 | 64 | 1018.6 |
| 20260905080142 | 27 | 271 | 3.2 | 8.0 | 0.00 | 0.00 | 0.00 | 62 | 1018.6 |
| 20260905075642 | 27 | 269 | 3.2 | 8.0 | 0.00 | 0.00 | 0.00 | 62 | 1018.5 |
| 20260905075400 | 27 | 231 | 3.2 | 6.4 | 0.00 | 0.00 | 0.00 | 68 | 1018.5 |
| 20260905074642 | 26 | 255 | 3.2 | 8.0 | 0.00 | 0.00 | 0.00 | 65 | 1018.5 |
| 20260905074141 | 26 | 262 | 4.8 | 8.0 | 0.00 | 0.00 | 0.00 | 66 | 1018.5 |
| 20260905073641 | 26 | 272 | 4.8 | 9.7 | 0.00 | 0.00 | 0.00 | 65 | 1018.5 |
| 20260905073139 | 26 | 281 | 4.8 | 9.7 | 0.00 | 0.00 | 0.00 | 64 | 1018.5 |
| 20260905072638 | 26 | 287 | 3.2 | 8.0 | 0.00 | 0.00 | 0.00 | 63 | 1018.5 |
| 20260905072136 | 26 | 273 | 3.2 | 9.7 | 0.00 | 0.00 | 0.00 | 65 | 1018.4 |
| 20260905071631 | 26 | 221 | 3.2 | 9.7 | 0.00 | 0.00 | 0.00 | 65 | 1018.4 |
| 20260905071128 | 26 | 214 | 4.8 | 9.7 | 0.00 | 0.00 | 0.00 | 67 | 1018.4 |
| 20260905070628 | 26 | 208 | 4.8 | 9.7 | 0.00 | 0.00 | 0.00 | 68 | 1018.4 |
| 20260905070354 | 26 | 239 | 4.8 | 9.7 | 0.00 | 0.00 | 0.00 | 68 | 1018.4 |
| 20260905065626 | 26 | 229 | 4.8 | 8.0 | 0.00 | 0.00 | 0.00 | 66 | 1018.5 |
| 20260905065126 | 25 | 284 | 4.8 | 9.7 | 0.00 | 0.00 | 0.00 | 68 | 1018.4 |
| 20260905064624 | 25 | 225 | 4.8 | 9.7 | 0.00 | 0.00 | 0.00 | 68 | 1018.5 |
| 20260905064559 | 25 | 233 | 4.8 | 9.7 | 0.00 | 0.00 | 0.00 | 69 | 1018.4 |
| 20260905063623 | 25 | 233 | 6.4 | 9.7 | 0.00 | 0.00 | 0.00 | 69 | 1018.4 |
| 20260905063123 | 25 | 272 | 8.0 | 14.5 | 0.00 | 0.00 | 0.00 | 71 | 1018.4 |
| 20260905062621 | 25 | 255 | 8.0 | 14.5 | 0.00 | 0.00 | 0.00 | 72 | 1018.5 |
| 20260905062342 | 25 | 260 | 8.0 | 12.9 | 0.00 | 0.00 | 0.00 | 71 | 1018.4 |
| 20260905061621 | 25 | 264 | 8.0 | 12.9 | 0.00 | 0.00 | 0.00 | 72 | 1018.4 |
| 20260905061119 | 26 | 273 | 6.4 | 12.9 | 0.00 | 0.00 | 0.00 | 68 | 1018.4 |
| 20260905060619 | 26 | 257 | 3.2 | 9.7 | 0.00 | 0.00 | 0.00 | 62 | 1018.4 |
| 20260905060339 | 26 | 252 | 1.6 | 4.8 | 0.00 | 0.00 | 0.00 | 60 | 1018.4 |
| 20260905055619 | 26 | 231 | 1.6 | 4.8 | 0.00 | 0.00 | 0.00 | 60 | 1018.4 |
| 20260905055119 | 27 | 90 | 0.0 | 3.2 | 0.00 | 0.00 | 0.00 | 57 | 1018.4 |
| 20260905054619 | 27 | 90 | 0.0 | 1.6 | 0.00 | 0.00 | 0.00 | 57 | 1018.3 |
| 20260905054112 | 26 | 90 | 0.0 | 1.6 | 0.00 | 0.00 | 0.00 | 58 | 1018.3 |
| 20260905053605 | 26 | 89 | 1.6 | 1.6 | 0.00 | 0.00 | 0.00 | 58 | 1018.3 |
| 20260905053059 | 26 | 89 | 1.6 | 1.6 | 0.00 | 0.00 | 0.00 | 58 | 1018.4 |
| 20260905052552 | 26 | 89 | 1.6 | 1.6 | 0.00 | 0.00 | 0.00 | 58 | 1018.3 |
| 20260905052046 | 25 | 89 | 0.0 | 3.2 | 0.00 | 0.00 | 0.00 | 58 | 1018.2 |
| 20260905052025 | 25 | 89 | 0.0 | 3.2 | 0.00 | 0.00 | 0.00 | 58 | 1018.3 |
| 20260905051035 | 25 | 89 | 1.6 | 3.2 | 0.00 | 0.00 | 0.00 | 58 | 1018.3 |
| 20260905050529 | 25 | 89 | 1.6 | 3.2 | 0.00 | 0.00 | 0.00 | 58 | 1018.3 |
| 20260905050023 | 25 | 90 | 0.0 | 3.2 | 0.00 | 0.00 | 0.00 | 58 | 1018.3 |
| 20260905045516 | 25 | 75 | 0.0 | 3.2 | 0.00 | 0.00 | 0.00 | 60 | 1018.3 |
| 20260905045011 | 24 | 75 | 0.0 | 4.8 | 0.00 | 0.00 | 0.00 | 60 | 1018.2 |
| 20260905044505 | 24 | 75 | 0.0 | 4.8 | 0.00 | 0.00 | 0.00 | 61 | 1018.2 |
| 20260905043958 | 24 | 82 | 1.6 | 4.8 | 0.00 | 0.00 | 0.00 | 61 | 1018.1 |
| 20260905043452 | 23 | 82 | 1.6 | 4.8 | 0.00 | 0.00 | 0.00 | 62 | 1018.1 |
| 20260905042946 | 23 | 92 | 1.6 | 4.8 | 0.00 | 0.00 | 0.00 | 62 | 1018.1 |
| 20260905042448 | 23 | 93 | 1.6 | 3.2 | 0.00 | 0.00 | 0.00 | 62 | 1018.0 |
| 20260905042204 | 23 | 93 | 1.6 | 4.8 | 0.00 | 0.00 | 0.00 | 62 | 1017.9 |
| 20260905041428 | 23 | 92 | 3.2 | 6.4 | 0.00 | 0.00 | 0.00 | 62 | 1017.8 |
| 20260905040923 | 23 | 97 | 3.2 | 6.4 | 0.00 | 0.00 | 0.00 | 62 | 1017.8 |
| 20260905040634 | 23 | 99 | 3.2 | 6.4 | 0.00 | 0.00 | 0.00 | 62 | 1017.8 |
| 20260905040140 | 23 | 89 | 3.2 | 6.4 | 0.00 | 0.00 | 0.00 | 63 | 1017.7 |
| 20260905035404 | 23 | 91 | 3.2 | 6.4 | 0.00 | 0.00 | 0.00 | 63 | 1017.6 |
| 20260905034858 | 23 | 79 | 3.2 | 4.8 | 0.00 | 0.00 | 0.00 | 64 | 1017.6 |
| 20260905034352 | 23 | 104 | 3.2 | 4.8 | 0.00 | 0.00 | 0.00 | 65 | 1017.5 |
| 20260905033847 | 23 | 94 | 1.6 | 4.8 | 0.00 | 0.00 | 0.00 | 65 | 1017.6 |
| 20260905033340 | 23 | 108 | 1.6 | 4.8 | 0.00 | 0.00 | 0.00 | 65 | 1017.6 |
| 20260905032835 | 23 | 78 | 1.6 | 4.8 | 0.00 | 0.00 | 0.00 | 65 | 1017.6 |
| 20260905032329 | 23 | 89 | 1.6 | 4.8 | 0.00 | 0.00 | 0.00 | 65 | 1017.5 |
| 20260905031815 | 23 | 90 | 1.6 | 4.8 | 0.00 | 0.00 | 0.00 | 65 | 1017.5 |
| 20260905031749 | 23 | 102 | 0.0 | 3.2 | 0.00 | 0.00 | 0.00 | 64 | 1017.5 |
| 20260905031018 | 24 | 102 | 0.0 | 3.2 | 0.00 | 0.00 | 0.00 | 63 | 1017.4 |
| 20260905030256 | 24 | 102 | 0.0 | 1.6 | 0.00 | 0.00 | 0.00 | 63 | 1017.4 |
| 20260905025750 | 24 | 102 | 1.6 | 3.2 | 0.00 | 0.00 | 0.00 | 63 | 1017.3 |
| 20260905025246 | 24 | 102 | 1.6 | 3.2 | 0.00 | 0.00 | 0.00 | 63 | 1017.3 |
| 20260905025009 | 24 | 102 | 1.6 | 3.2 | 0.00 | 0.00 | 0.00 | 63 | 1017.3 |
| 20260905024232 | 24 | 105 | 0.0 | 3.2 | 0.00 | 0.00 | 0.00 | 63 | 1017.2 |
| 20260905023945 | 24 | 105 | 0.0 | 1.6 | 0.00 | 0.00 | 0.00 | 63 | 1017.2 |
| 20260905023221 | 24 | 105 | 0.0 | 1.6 | 0.00 | 0.00 | 0.00 | 63 | 1017.2 |
| 20260905022715 | 24 | 210 | 0.0 | 3.2 | 0.00 | 0.00 | 0.00 | 63 | 1017.2 |
| 20260905022208 | 24 | 210 | 0.0 | 3.2 | 0.00 | 0.00 | 0.00 | 63 | 1017.3 |
| 20260905021703 | 24 | 89 | 0.0 | 3.2 | 0.00 | 0.00 | 0.00 | 62 | 1017.2 |
| 20260905021157 | 24 | 89 | 1.6 | 3.2 | 0.00 | 0.00 | 0.00 | 62 | 1017.3 |
| 20260905020650 | 24 | 89 | 1.6 | 3.2 | 0.00 | 0.00 | 0.00 | 61 | 1017.2 |
| 20260905020405 | 24 | 89 | 0.0 | 3.2 | 0.00 | 0.00 | 0.00 | 61 | 1017.2 |
| 20260905015639 | 24 | 89 | 1.6 | 4.8 | 0.00 | 0.00 | 0.00 | 61 | 1017.3 |
| 20260905015133 | 24 | 89 | 3.2 | 8.0 | 0.00 | 0.00 | 0.00 | 61 | 1017.1 |
| 20260905014626 | 24 | 91 | 3.2 | 8.0 | 0.00 | 0.00 | 0.00 | 61 | 1017.2 |
| 20260905014120 | 24 | 107 | 1.6 | 4.8 | 0.00 | 0.00 | 0.00 | 60 | 1017.1 |
| 20260905013614 | 25 | 77 | 1.6 | 4.8 | 0.00 | 0.00 | 0.00 | 59 | 1017.1 |
| 20260905013108 | 25 | 98 | 1.6 | 3.2 | 0.00 | 0.00 | 0.00 | 58 | 1017.1 |
| 20260905012823 | 25 | 98 | 1.6 | 3.2 | 0.00 | 0.00 | 0.00 | 58 | 1017.0 |
| 20260905012057 | 25 | 98 | 0.0 | 3.2 | 0.00 | 0.00 | 0.00 | 58 | 1017.0 |
| 20260905011551 | 25 | 98 | 0.0 | 3.2 | 0.00 | 0.00 | 0.00 | 58 | 1017.0 |
| 20260905011534 | 25 | 98 | 1.6 | 6.4 | 0.00 | 0.00 | 0.00 | 57 | 1017.0 |
| 20260905010539 | 25 | 98 | 3.2 | 6.4 | 0.00 | 0.00 | 0.00 | 58 | 1016.9 |
| 20260905010033 | 25 | 99 | 1.6 | 3.2 | 0.00 | 0.00 | 0.00 | 58 | 1016.9 |
| 20260905005527 | 25 | 99 | 1.6 | 4.8 | 0.00 | 0.00 | 0.00 | 58 | 1016.9 |
| 20260905005021 | 24 | 99 | 1.6 | 4.8 | 0.00 | 0.00 | 0.00 | 58 | 1016.9 |
| 20260905004515 | 24 | 95 | 3.2 | 8.0 | 0.00 | 0.00 | 0.00 | 57 | 1016.9 |
| 20260905004236 | 25 | 82 | 4.8 | 8.0 | 0.00 | 0.00 | 0.00 | 56 | 1016.7 |
| 20260905003503 | 25 | 89 | 4.8 | 8.0 | 0.00 | 0.00 | 0.00 | 54 | 1016.7 |
| 20260905003221 | 25 | 96 | 3.2 | 6.4 | 0.00 | 0.00 | 0.00 | 52 | 1016.7 |
| 20260905002459 | 25 | 90 | 3.2 | 6.4 | 0.00 | 0.00 | 0.00 | 52 | 1016.7 |
| 20260905001958 | 25 | 120 | 1.6 | 6.4 | 0.00 | 0.00 | 0.00 | 53 | 1016.6 |
| 20260905001457 | 25 | 105 | 1.6 | 4.8 | 0.00 | 0.00 | 0.00 | 51 | 1016.6 |
| 20260905000955 | 25 | 304 | 1.6 | 4.8 | 0.00 | 0.00 | 0.00 | 51 | 1016.5 |
| 20260905000455 | 25 | 55 | 0.0 | 3.2 | 0.00 | 0.00 | 0.00 | 50 | 1016.5 |
| 20260905000218 | 25 | 55 | 1.6 | 3.2 | 0.00 | 0.00 | 0.00 | 50 | 1016.4 |
| 20260904235454 | 25 | 101 | 1.6 | 9.7 | 0.00 | 0.00 | 0.00 | 49 | 1016.3 |
| 20260904234952 | 25 | 104 | 3.2 | 9.7 | 0.00 | 0.00 | 0.00 | 49 | 1016.3 |
| 20260904234711 | 25 | 143 | 3.2 | 9.7 | 0.00 | 0.00 | 0.00 | 49 | 1016.3 |
| 20260904234207 | 25 | 113 | 3.2 | 9.7 | 0.00 | 0.00 | 0.00 | 49 | 1016.3 |
| 20260904233448 | 25 | 142 | 3.2 | 9.7 | 0.00 | 0.00 | 0.00 | 48 | 1016.3 |
| 20260904232947 | 25 | 97 | 1.6 | 6.4 | 0.00 | 0.00 | 0.00 | 48 | 1016.3 |
| 20260904232444 | 25 | 99 | 1.6 | 4.8 | 0.00 | 0.00 | 0.00 | 48 | 1016.3 |
| 20260904231945 | 25 | 152 | 1.6 | 4.8 | 0.00 | 0.00 | 0.00 | 48 | 1016.3 |
| 20260904231444 | 25 | 103 | 1.6 | 4.8 | 0.00 | 0.00 | 0.00 | 48 | 1016.3 |
| 20260904230945 | 25 | 115 | 1.6 | 4.8 | 0.00 | 0.00 | 0.00 | 48 | 1016.3 |
| 20260904230441 | 25 | 91 | 1.6 | 4.8 | 0.00 | 0.00 | 0.00 | 48 | 1016.2 |
| 20260904225941 | 25 | 148 | 1.6 | 4.8 | 0.00 | 0.00 | 0.00 | 50 | 1016.2 |
| 20260904225438 | 25 | 155 | 1.6 | 3.2 | 0.00 | 0.00 | 0.00 | 50 | 1016.3 |
| 20260904224939 | 25 | 149 | 1.6 | 3.2 | 0.00 | 0.00 | 0.00 | 52 | 1016.3 |
| 20260904224439 | 25 | 146 | 1.6 | 3.2 | 0.00 | 0.00 | 0.00 | 53 | 1016.3 |
| 20260904223939 | 26 | 148 | 1.6 | 3.2 | 0.00 | 0.00 | 0.00 | 54 | 1016.3 |
| 20260904223438 | 26 | 47 | 0.0 | 3.2 | 0.00 | 0.00 | 0.00 | 54 | 1016.3 |
| 20260904222939 | 26 | 46 | 1.6 | 3.2 | 0.00 | 0.00 | 0.00 | 54 | 1016.3 |
| 20260904222701 | 26 | 46 | 1.6 | 3.2 | 0.00 | 0.00 | 0.00 | 52 | 1016.3 |
| 20260904221938 | 26 | 259 | 1.6 | 4.8 | 0.00 | 0.00 | 0.00 | 50 | 1016.2 |
| 20260904221439 | 26 | 259 | 1.6 | 4.8 | 0.00 | 0.00 | 0.00 | 53 | 1016.2 |
| 20260904220939 | 26 | 203 | 1.6 | 4.8 | 0.00 | 0.00 | 0.00 | 53 | 1016.2 |
| 20260904220439 | 27 | 252 | 1.6 | 4.8 | 0.00 | 0.00 | 0.00 | 51 | 1016.3 |
| 20260904215939 | 27 | 269 | 1.6 | 4.8 | 0.00 | 0.00 | 0.00 | 49 | 1016.2 |
| 20260904215438 | 27 | 316 | 3.2 | 11.3 | 0.00 | 0.00 | 0.00 | 50 | 1016.3 |